Quantico, VA

9:43 PM EST on December 14, 2019 (GMT -0500)
Quantico Marine Corps Air Facility

Weather History for KNYG - October, 2019

Change the Weather History Date:

Wednesday, October 23, 2019

  Actual Average Record
Temperature  
Mean Temperature 62 °F -  
Max Temperature 69 °F 62 °F 80 °F (2012)
Min Temperature 55 °F 44 °F 31 °F (1997)
Degree Days  
Heating Degree Days 4    
Growing Degree Days 12 (Base 50)    
Moisture  
Dew Point 47 °F    
Average Humidity 55    
Maximum Humidity 65    
Minimum Humidity 39    
Precipitation  
Precipitation 0.00 in - - ()
Sea Level Pressure  
Sea Level Pressure 30.08 in    
Wind  
Wind Speed 3 mph (SW)    
Max Wind Speed 10 mph    
Max Gust Speed -    
Visibility 10 miles    
Events      
Averages and records for this station are not official NWS values.
T = Trace of Precipitation, MM = Missing Value Source: NWS Daily Summary

Daily Weather History Graph

Daily Weather History Graph

Search for Another Location

Airport or City:

Astronomy

Oct. 23, 2019 Rise Set
Actual Time 7:26 AM EDT 6:20 PM EDT
Civil Twilight 6:59 AM EDT 6:47 PM EDT
Nautical Twilight 6:28 AM EDT 7:18 PM EDT
Astronomical Twilight 5:57 AM EDT 7:49 PM EDT
Moon 1:47 AM EDT (10/23) 4:04 PM EDT (10/23)
Length of Visible Light 11h 48m
Length of Day
10h 54m
Waning Crescent, 27% of the Moon is Illuminated
Oct 23
Waning Crescent
Oct 27
New
Nov 4
First Quarter
Nov 12
Full
Nov 19
Last Quarter

Hourly Weather History & Observations

Time (EDT) Temp. Dew Point Humidity Pressure Visibility Wind Dir Wind Speed Gust Speed Precip Events Conditions
12:56 AM - - N/A% 29.89 in - North - - N/A   Unknown
1:56 AM - - N/A% 29.90 in - North - - N/A   Unknown
3:56 AM - - N/A% 29.94 in - North - - N/A   Unknown
4:56 AM - - N/A% 29.96 in - North - - N/A   Unknown
5:56 AM - - N/A% 29.99 in - North - - N/A   Unknown
6:56 AM - - N/A% 30.02 in - North - - N/A   Unknown
7:56 AM - - N/A% 30.04 in - North - - N/A   Unknown
8:07 AM 55.9 °F 44.1 °F 64% 30.03 in 10.0 mi ESE 3.5 mph - N/A   Partly Cloudy
8:56 AM 55.9 °F 44.1 °F 64% 30.06 in 10.0 mi ESE 3.5 mph - N/A   Partly Cloudy
9:02 AM 60.1 °F 46.0 °F 60% 30.06 in 10.0 mi Calm Calm - N/A   Partly Cloudy
9:30 AM 63.0 °F 46.0 °F 54% 30.07 in 10.0 mi Calm Calm - N/A   Partly Cloudy
9:54 AM 64.4 °F 51.8 °F 64% 30.08 in 10.0 mi Calm Calm - N/A   Partly Cloudy
9:56 AM 64.0 °F 51.1 °F 63% 30.09 in 10.0 mi Calm Calm - N/A   Partly Cloudy
10:02 AM 64.0 °F 52.0 °F 65% 30.08 in 10.0 mi Calm Calm - N/A   Partly Cloudy
10:29 AM 63.0 °F 50.0 °F 63% 30.09 in 10.0 mi South 3.5 mph - N/A   Clear
10:54 AM 66.2 °F 48.2 °F 52% 30.09 in 10.0 mi WSW 3.5 mph - N/A   Partly Cloudy
10:56 AM 66.0 °F 48.0 °F 52% 30.10 in 10.0 mi WSW 3.5 mph - N/A   Partly Cloudy
11:38 AM 66.0 °F 48.0 °F 52% 30.09 in 10.0 mi WSW 3.5 mph - N/A   Partly Cloudy
11:56 AM 64.9 °F 48.9 °F 56% 30.09 in 10.0 mi WSW 6.9 mph - N/A   Partly Cloudy
12:56 PM 66.9 °F 48.0 °F 51% 30.09 in 10.0 mi SW 6.9 mph - N/A   Partly Cloudy
1:56 PM 66.0 °F 44.1 °F 45% 30.08 in 10.0 mi SW 9.2 mph - N/A   Partly Cloudy
2:56 PM 68.0 °F 44.1 °F 42% 30.09 in 10.0 mi SW 10.4 mph - N/A   Partly Cloudy
3:56 PM 68.0 °F 44.1 °F 42% 30.10 in 10.0 mi SW 10.4 mph - N/A   Partly Cloudy
4:56 PM 69.1 °F 43.0 °F 39% 30.11 in 10.0 mi SW 5.8 mph - N/A   Partly Cloudy
6:56 PM - - N/A% 30.16 in - North - - N/A   Unknown
8:56 PM - - N/A% 30.21 in - North - - N/A   Unknown
9:56 PM - - N/A% 30.24 in - North - - N/A   Unknown
10:56 PM - - N/A% 30.25 in - North - - N/A   Unknown
11:56 PM - - N/A% 30.25 in - North - - N/A   Unknown